[[{"header":{"parameterUnit":"m.s-1","parameterCategory":1,"la1":30.2991,"la2":30.254,"lo1":-89.0895,"lo2":-89.0444,"dy":0.0017,"dx":0.0017,"nx":28,"ny":28,"refTime":"2023-09-28T21:00:00:Z","depth":0,"parameterNumber":2,"parameterNumberName":"U-component_of_WINDS"},"data":[0,0,0,0,0,0,0,0,0,0,0,0,0,0,0,0,0,0,0,0,0,0,0,0,0,0,0,0,0,0,0,0,0,0,0,0,0,0,0,0,0,0,0,0,0,0,0,0,0,0,0,0,0,0,0,0,0,0,-4.3828,-4.3829,0,-4.3889,-4.389,-4.3891,-4.374,-4.3735,-4.373,-4.3726,-4.379,-4.3796,-4.3802,0,0,0,0,0,0,0,0,0,0,0,0,0,-4.3583,-4.3588,-4.3828,-4.3829,-4.383,-4.3889,-4.389,-4.3891,-4.3741,-4.3735,-4.3729,-4.3724,-4.3788,-4.3796,-4.3803,0,0,0,0,0,0,0,0,0,0,0,0,0,-4.3671,-4.359,-4.3828,-4.3762,-4.3757,-4.3889,-4.389,-4.3891,-4.3742,-4.3735,-4.3728,-4.3721,-4.3786,-4.3795,-4.3804,-4.4004,0,0,-4.3832,-4.3836,0,0,0,0,0,0,0,0,-4.3667,-4.3681,-4.3771,-4.3767,-4.3761,-4.38,-4.3827,-4.3929,-4.3744,-4.3748,-4.3726,-4.3717,-4.3799,-4.3807,-4.3834,-4.4007,-4.401,-4.3833,-4.3839,-4.3843,-4.3845,0,0,0,0,0,0,0,-4.3661,-4.3677,-4.3852,-4.3772,-4.3766,-4.373,-4.3734,-4.3846,-4.3813,-4.3747,-4.3736,-4.3745,-4.3795,-4.3826,-4.3835,-4.4011,-4.3833,-4.3841,-4.3847,-4.385,-4.435,-4.4357,0,0,0,0,0,0,-4.3663,-4.3673,-4.385,-4.3854,-4.3695,-4.374,-4.3745,-4.3794,-4.3811,-4.3807,-4.3751,-4.3738,-4.3813,-4.3824,-4.3836,-4.4071,-4.3842,-4.3851,-4.3856,-4.4342,-4.4352,-4.436,0,0,0,0,0,0,-4.3658,-4.368,-4.3848,-4.3761,-4.3779,-4.3752,-4.3808,-4.3799,-4.3829,-4.3814,-4.3808,-4.3788,-4.3808,-4.3823,-4.3963,-4.4071,-4.3855,-4.3864,-4.4333,-4.4345,-4.4356,-4.4543,0,0,0,0,0,0,-4.3652,-4.3679,-4.3755,-4.3763,-4.3784,-4.3974,-4.3815,-4.3806,-4.3846,-4.3829,-4.3847,-4.3844,-4.3804,-4.395,-4.3972,-4.408,-4.3871,-4.4323,-4.4338,-4.4352,-4.4527,-4.456,-4.4587,0,0,0,0,0,-4.3643,-4.3806,-4.3759,-4.3782,-4.3878,-4.398,-4.3992,-4.3943,-4.3855,-4.3931,-4.3921,-4.3843,-4.4056,-4.3966,-4.3989,-4.4102,-4.4316,-4.4334,-4.4351,-4.4514,-4.4553,-4.4587,0,0,0,0,0,0,-4.3811,-4.3805,-4.3754,-4.3924,-4.3954,-4.3955,-4.4049,-4.3986,-4.4042,-4.4024,-4.396,-4.3966,-4.4118,-4.4123,-4.4023,-4.4296,-4.4171,-4.4194,-4.4287,-4.4324,-4.4354,-4.435,-4.3879,0,0,0,0,0,-4.3867,-4.3951,-4.3941,-4.4092,-4.411,-4.4077,-4.412,-4.4079,-4.4107,-4.4119,-4.412,-4.4151,-4.4224,-4.4274,-4.4341,-4.4527,-4.4529,-4.4616,-4.4646,-4.4671,-4.4692,-4.479,-4.4829,-4.4417,-4.4417,-4.4417,0,0,-4.3985,-4.3993,-4.4049,-4.4126,-4.4144,-4.4232,-4.4089,-4.4188,-4.4253,-4.4134,-4.4266,-4.4268,-4.4299,-4.4462,-4.4534,-4.4472,-4.4806,-4.4693,-4.4713,-4.472,-4.4812,-4.4851,-4.4886,-4.4429,-4.4427,-4.4425,0,0,-4.4245,-4.4259,-4.4386,-4.4407,-4.4436,-4.4413,-4.4444,-4.4455,-4.4451,-4.4582,-4.4496,-4.4572,-4.47,-4.4725,-4.4755,-4.5024,-4.4955,-4.5048,-4.5206,-4.5303,-4.5335,-4.5364,-4.546,-4.5495,-4.5069,-4.5069,-4.5069,0,-4.4388,-4.4517,-4.4459,-4.4564,-4.4601,-4.4497,-4.4625,-4.4649,-4.4699,-4.4727,-4.4655,-4.4814,-4.4827,-4.4995,-4.5061,-4.5088,-4.5122,-4.5046,-4.5335,-4.5363,-4.5389,-4.548,-4.5516,-4.508,-4.5079,-4.5078,-4.5077,0,-4.4691,-4.4782,-4.4881,-4.4931,-4.4978,-4.5095,-4.5055,-4.511,-4.5065,-4.505,-4.5185,-4.5197,-4.5265,-4.5301,-4.5259,-4.5464,-4.5424,-4.5346,-4.5219,-4.544,-4.5525,-4.5559,-4.5096,-4.5092,-4.5089,-4.5086,0,0,-4.5059,-4.5075,-4.5113,-4.5134,-4.5159,-4.5228,-4.5339,-4.5405,-4.5453,-4.5491,-4.5584,-4.5694,-4.5621,-4.5655,-4.5614,-4.5699,-4.5912,-4.5609,-4.5609,-4.5666,-4.6139,-4.6199,-4.624,-4.5866,-4.5872,-4.5877,-4.6137,0,-4.5316,-4.5506,-4.5458,-4.5648,-4.5731,-4.5633,-4.573,-4.5756,-4.5746,-4.5814,-4.5802,-4.5882,-4.5779,-4.5799,-4.5879,-4.5869,-4.6006,-4.585,-4.5952,-4.5956,-4.5948,-4.6284,-4.6347,-4.6592,-4.6169,-4.6175,-4.6179,0,-4.5641,-4.5691,-4.5889,-4.5899,-4.5932,-4.6021,-4.6076,-4.6143,-4.6171,-4.6157,-4.6195,-4.6137,-4.6247,-4.612,-4.6272,-4.6166,-4.6205,-4.6207,-4.6215,-4.6223,-4.6081,-4.6302,-4.6668,-4.6705,-4.623,-4.6226,-4.6223,0,-4.5889,-4.6006,-4.6139,-4.6161,-4.6177,-4.6241,-4.6251,-4.6271,-4.6313,-4.6362,-4.6389,-4.6451,-4.6485,-4.6534,-4.6495,-4.6405,-4.6653,-4.6522,-4.6645,-4.6646,-4.6702,-4.6699,-4.708,-4.6727,-4.6726,-4.6726,-4.6725,0,-4.6181,-4.6306,-4.6251,-4.6334,-4.6471,-4.6414,-4.6552,-4.655,-4.6569,-4.6649,-4.6569,-4.6647,-4.6589,-4.6662,-4.6632,-4.6762,-4.6778,-4.677,-4.6761,-4.6778,-4.6779,-4.6803,-4.6785,-4.6735,-4.6733,-4.6731,-4.673,0,-4.6482,-4.645,-4.6589,-4.6593,-4.6596,-4.6698,-4.67,-4.6777,-4.6759,-4.6863,-4.6883,-4.6857,-4.6938,-4.6904,-4.699,-4.6969,-4.7137,-4.7105,-4.7128,-4.712,-4.7244,-4.7233,-4.7655,-4.7707,-4.732,-4.7324,-4.7327,0,-4.6671,-4.6764,-4.6778,-4.6825,-4.684,-4.6919,-4.6961,-4.6909,-4.6957,-4.6995,-4.7067,-4.7141,-4.7198,-4.7333,-4.7322,-4.7387,-4.7356,-4.7499,-4.7366,-4.738,-4.7359,-4.7354,-4.7363,-4.7526,-4.7531,-4.7535,-4.7538,0,-4.7009,-4.6988,-4.7052,-4.7112,-4.7164,-4.7209,-4.7246,-4.729,-4.7239,-4.7297,-4.7379,-4.7423,-4.751,-4.7585,-4.7643,-4.7653,-4.7588,-4.758,-4.7611,-4.763,-4.7639,-4.7636,-4.7201,-4.757,-4.7567,-4.7565,-4.7563,-4.7562,-4.7259,-4.7338,-4.7359,-4.7434,-4.7456,-4.7493,-4.7565,-4.7556,-4.7623,-4.769,-4.7655,-4.7751,-4.7775,-4.7846,-4.7865,-4.794,-4.7883,-4.793,-4.7942,-4.7954,-4.7971,-4.7628,-4.795,-4.7949,-4.7948,-4.7947,-4.7947,0,-4.7593,-4.7602,-4.7671,-4.7725,-4.7784,-4.7716,-4.7753,-4.7807,-4.7892,-4.792,-4.7978,-4.8072,-4.8144,-4.8139,-4.8206,-4.8266,-4.8238,-4.8286,-4.8281,-4.8284,-4.8017,-4.7983,-4.8307,-4.8307,-4.8307,-4.8307,-4.8307,-4.8307,-4.7773,-4.7903,-4.7886,-4.8026,-4.8033,-4.8126,-4.8153,-4.8187,-4.8209,-4.8318,-4.8377,-4.8373,-4.8388,-4.8455,-4.8519,-4.8515,-4.8544,-4.8603,-4.8589,-4.8339,-4.8303,-4.8269,-4.8236,-4.8609,-4.861,-4.8849,-4.8852,-4.8853]},{"header":{"parameterUnit":"m.s-1","parameterCategory":1,"la1":30.2991,"la2":30.254,"lo1":-89.0895,"lo2":-89.0444,"dy":0.0017,"dx":0.0017,"nx":28,"ny":28,"refTime":"2023-09-28T21:00:00:Z","depth":0,"parameterNumber":3,"parameterNumberName":"V-component_of_WINDS"},"data":[0,0,0,0,0,0,0,0,0,0,0,0,0,0,0,0,0,0,0,0,0,0,0,0,0,0,0,0,0,0,0,0,0,0,0,0,0,0,0,0,0,0,0,0,0,0,0,0,0,0,0,0,0,0,0,0,0,0,-2.2142,-2.2142,0,-2.2157,-2.2158,-2.2158,-2.2142,-2.2142,-2.2141,-2.2141,-2.2156,-2.2157,-2.2158,0,0,0,0,0,0,0,0,0,0,0,0,0,-2.2098,-2.2099,-2.2142,-2.2142,-2.2143,-2.2157,-2.2158,-2.2158,-2.2143,-2.2142,-2.2141,-2.214,-2.2155,-2.2156,-2.2158,0,0,0,0,0,0,0,0,0,0,0,0,0,-2.2116,-2.2099,-2.2142,-2.2137,-2.2136,-2.2157,-2.2158,-2.2158,-2.2143,-2.2142,-2.2141,-2.214,-2.2155,-2.2156,-2.2158,-2.2185,0,0,-2.2162,-2.2163,0,0,0,0,0,0,0,0,-2.2115,-2.2117,-2.2137,-2.2137,-2.2137,-2.2147,-2.2147,-2.2167,-2.2143,-2.214,-2.2141,-2.214,-2.2153,-2.2155,-2.216,-2.2185,-2.2186,-2.2162,-2.2163,-2.2164,-2.2164,0,0,0,0,0,0,0,-2.2113,-2.2116,-2.2148,-2.2138,-2.2137,-2.2133,-2.2134,-2.2151,-2.2152,-2.214,-2.2139,-2.2141,-2.2153,-2.2158,-2.216,-2.2186,-2.2162,-2.2164,-2.2164,-2.2165,-2.2232,-2.2233,0,0,0,0,0,0,-2.2113,-2.2116,-2.2148,-2.2149,-2.2123,-2.2134,-2.2136,-2.2145,-2.2152,-2.2152,-2.2142,-2.2141,-2.2156,-2.2158,-2.2161,-2.2191,-2.2164,-2.2165,-2.2166,-2.2231,-2.2232,-2.2233,0,0,0,0,0,0,-2.2112,-2.2116,-2.2147,-2.2132,-2.2135,-2.2136,-2.2146,-2.2145,-2.2151,-2.2153,-2.2153,-2.2148,-2.2156,-2.2159,-2.2178,-2.2191,-2.2166,-2.2167,-2.223,-2.2232,-2.2233,-2.2253,0,0,0,0,0,0,-2.2111,-2.2116,-2.2127,-2.2132,-2.2136,-2.2165,-2.2147,-2.2146,-2.2153,-2.2151,-2.2158,-2.2158,-2.2155,-2.2176,-2.218,-2.2193,-2.2168,-2.2229,-2.2231,-2.2233,-2.2251,-2.2255,-2.2258,0,0,0,0,0,-2.2109,-2.2132,-2.2127,-2.2131,-2.215,-2.2166,-2.2168,-2.2165,-2.2154,-2.2165,-2.2166,-2.2158,-2.2189,-2.2178,-2.2182,-2.2196,-2.2228,-2.223,-2.2232,-2.2249,-2.2254,-2.2258,0,0,0,0,0,0,-2.2128,-2.2133,-2.2127,-2.2153,-2.2159,-2.2163,-2.2177,-2.217,-2.218,-2.2178,-2.2173,-2.2174,-2.2195,-2.2197,-2.2185,-2.2221,-2.2207,-2.221,-2.2219,-2.2223,-2.2226,-2.2225,-2.2169,0,0,0,0,0,-2.2135,-2.2148,-2.2151,-2.2173,-2.2177,-2.2176,-2.2183,-2.218,-2.2186,-2.2189,-2.2191,-2.2197,-2.2208,-2.2216,-2.2227,-2.2251,-2.2252,-2.2263,-2.2266,-2.2269,-2.2271,-2.2283,-2.2287,-2.224,-2.224,-2.224,0,0,-2.215,-2.2154,-2.2163,-2.2177,-2.2182,-2.2194,-2.2178,-2.2193,-2.2202,-2.2191,-2.2209,-2.2211,-2.2218,-2.224,-2.225,-2.2243,-2.2284,-2.2271,-2.2274,-2.2275,-2.2285,-2.229,-2.2294,-2.2242,-2.2241,-2.2241,0,0,-2.2183,-2.2188,-2.2206,-2.2211,-2.2217,-2.2217,-2.2221,-2.2226,-2.2227,-2.2245,-2.2236,-2.2247,-2.2266,-2.2271,-2.2276,-2.2309,-2.2301,-2.2312,-2.233,-2.2341,-2.2345,-2.2348,-2.2359,-2.2363,-2.2315,-2.2315,-2.2315,0,-2.2201,-2.222,-2.2216,-2.2231,-2.2237,-2.2226,-2.2243,-2.2248,-2.2258,-2.2262,-2.2254,-2.2277,-2.2281,-2.2303,-2.2311,-2.2316,-2.232,-2.2311,-2.2345,-2.2348,-2.2351,-2.2361,-2.2365,-2.2316,-2.2316,-2.2316,-2.2316,0,-2.224,-2.2254,-2.2267,-2.2276,-2.2284,-2.23,-2.2297,-2.2305,-2.2301,-2.2301,-2.2318,-2.2322,-2.2333,-2.2338,-2.2334,-2.2359,-2.2354,-2.2346,-2.2331,-2.2357,-2.2366,-2.237,-2.2318,-2.2317,-2.2317,-2.2317,0,0,-2.2287,-2.2292,-2.2297,-2.23,-2.2306,-2.2316,-2.2331,-2.2341,-2.2347,-2.2354,-2.2365,-2.2382,-2.2373,-2.2379,-2.2375,-2.2385,-2.2409,-2.2375,-2.2375,-2.238,-2.2435,-2.244,-2.2445,-2.2404,-2.2405,-2.2406,-2.2434,0,-2.2319,-2.2345,-2.234,-2.2365,-2.2376,-2.2366,-2.2379,-2.2383,-2.2383,-2.2392,-2.2392,-2.2403,-2.2392,-2.2395,-2.2404,-2.2404,-2.242,-2.2402,-2.2414,-2.2415,-2.2412,-2.245,-2.2456,-2.2483,-2.2438,-2.2438,-2.2439,0,-2.236,-2.2367,-2.2393,-2.2395,-2.24,-2.2412,-2.2419,-2.2429,-2.2433,-2.2432,-2.2437,-2.2432,-2.2445,-2.2431,-2.2449,-2.2437,-2.2442,-2.2442,-2.2443,-2.2444,-2.2428,-2.245,-2.2491,-2.2495,-2.2444,-2.2444,-2.2444,0,-2.2389,-2.2406,-2.2423,-2.2426,-2.243,-2.2438,-2.244,-2.2443,-2.2449,-2.2455,-2.2459,-2.2467,-2.2471,-2.2478,-2.2474,-2.2464,-2.2492,-2.2478,-2.2491,-2.2491,-2.2497,-2.2496,-2.2538,-2.2501,-2.2501,-2.2501,-2.2501,0,-2.2425,-2.2441,-2.2436,-2.2446,-2.2463,-2.2457,-2.2474,-2.2475,-2.2478,-2.2487,-2.2479,-2.2488,-2.2483,-2.2492,-2.2489,-2.2503,-2.2506,-2.2505,-2.2504,-2.2505,-2.2505,-2.2507,-2.2505,-2.2502,-2.2502,-2.2502,-2.2502,0,-2.2461,-2.2458,-2.2476,-2.2477,-2.2478,-2.249,-2.2491,-2.25,-2.2499,-2.2511,-2.2513,-2.2511,-2.2521,-2.2518,-2.2528,-2.2526,-2.2544,-2.2541,-2.2543,-2.2542,-2.2554,-2.2553,-2.2598,-2.2603,-2.2564,-2.2565,-2.2565,0,-2.2484,-2.2495,-2.2497,-2.2503,-2.2505,-2.2515,-2.252,-2.2515,-2.252,-2.2525,-2.2534,-2.2542,-2.2549,-2.2564,-2.2563,-2.2571,-2.2567,-2.2583,-2.2568,-2.2569,-2.2566,-2.2565,-2.2566,-2.2585,-2.2586,-2.2586,-2.2587,0,-2.2524,-2.2521,-2.2529,-2.2536,-2.2542,-2.2547,-2.2552,-2.2557,-2.2552,-2.2558,-2.2568,-2.2573,-2.2583,-2.2591,-2.2597,-2.2599,-2.2591,-2.2591,-2.2594,-2.2595,-2.2595,-2.2594,-2.2549,-2.259,-2.259,-2.2589,-2.2589,-2.2589,-2.2552,-2.2561,-2.2564,-2.2572,-2.2575,-2.2579,-2.2587,-2.2586,-2.2594,-2.2601,-2.2598,-2.2608,-2.2611,-2.2618,-2.2621,-2.2628,-2.2622,-2.2627,-2.2628,-2.2629,-2.263,-2.2595,-2.263,-2.2629,-2.2629,-2.2629,-2.2629,0,-2.2591,-2.2591,-2.2599,-2.2605,-2.2611,-2.2604,-2.2608,-2.2614,-2.2623,-2.2626,-2.2632,-2.2642,-2.2649,-2.2649,-2.2656,-2.2662,-2.2658,-2.2664,-2.2663,-2.2663,-2.2636,-2.2632,-2.2666,-2.2666,-2.2666,-2.2666,-2.2666,-2.2666,-2.2611,-2.2626,-2.2623,-2.2638,-2.2639,-2.2649,-2.2652,-2.2655,-2.2657,-2.2668,-2.2674,-2.2673,-2.2675,-2.2681,-2.2687,-2.2687,-2.2689,-2.2696,-2.2694,-2.2669,-2.2665,-2.2661,-2.2657,-2.2696,-2.2696,-2.272,-2.272,-2.272]}]]